• In Uzbekistan
  • List of Countries
  • For 7 days
  • Water Temperature
  • Satellite Maps
  • Weather Map
  • Weather Widgets
  • user-avatar
    Login

    Hourly Weather Shaki

    Today, 20 February, Monday

    Time Temperature Precipitation Wind Pressure Humidity
    00:00 -1°C° 0 mm 1 mps 744 mmHg 66%
    01:00 -1°C° 0 mm 1 mps 744 mmHg 66%
    02:00 -1°C° 0 mm 1 mps 744 mmHg 65%
    03:00 -2°C° 0 mm 1 mps 744 mmHg 68%
    04:00 -3°C° 0 mm 0 mps 743 mmHg 68%
    05:00 -3°C° 0 mm 0 mps 743 mmHg 67%
    06:00 -3°C° 0 mm 0 mps 743 mmHg 67%
    07:00 +1°C° 0 mm 1 mps 743 mmHg 64%
    08:00 +4°C° 0 mm 1 mps 743 mmHg 61%
    09:00 +6°C° 0 mm 1 mps 743 mmHg 56%
    10:00 +7°C° 0 mm 1 mps 742 mmHg 54%
    11:00 +8°C° 0 mm 1 mps 742 mmHg 52%
    12:00 +9°C° 0 mm 1 mps 741 mmHg 50%
    13:00 +10°C° 0 mm 1 mps 741 mmHg 50%
    14:00 +10°C° 0 mm 1 mps 740 mmHg 51%
    15:00 +10°C° 0 mm 1 mps 740 mmHg 51%
    16:00 +7°C° 0 mm 1 mps 740 mmHg 57%
    17:00 +5°C° 0 mm 1 mps 739 mmHg 62%
    18:00 +2°C° 0 mm 1 mps 739 mmHg 68%
    19:00 +2°C° 0 mm 1 mps 739 mmHg 67%
    20:00 +2°C° 0 mm 1 mps 739 mmHg 66%
    21:00 +1°C° 0 mm 1 mps 738 mmHg 65%
    22:00 +1°C° 0 mm 1 mps 738 mmHg 64%
    23:00 0°C° 0 mm 0 mps 738 mmHg 63%

    Tomorrow, 21 February, Tuesday

    Time Temperature Precipitation Wind Pressure Humidity
    00:00 0°C° 0 mm 0 mps 738 mmHg 63%
    01:00 +1°C° 0 mm 1 mps 737 mmHg 62%
    02:00 +1°C° 0 mm 1 mps 737 mmHg 61%
    03:00 +1°C° 0 mm 1 mps 737 mmHg 60%
    04:00 +1°C° 0 mm 1 mps 737 mmHg 58%
    05:00 +1°C° 0 mm 1 mps 736 mmHg 56%
    06:00 -1°C° 0 mm 2 mps 736 mmHg 54%
    07:00 +2°C° 0 mm 2 mps 736 mmHg 52%
    08:00 +4°C° 0 mm 2 mps 736 mmHg 50%
    09:00 +6°C° 0 mm 2 mps 736 mmHg 48%
    10:00 +8°C° 0 mm 2 mps 735 mmHg 46%
    11:00 +9°C° 0 mm 2 mps 735 mmHg 44%
    12:00 +11°C° 0 mm 3 mps 734 mmHg 42%
    13:00 +11°C° 0 mm 3 mps 734 mmHg 43%
    14:00 +11°C° 0 mm 3 mps 734 mmHg 44%
    15:00 +11°C° 0 mm 3 mps 733 mmHg 45%
    16:00 +8°C° 0 mm 2 mps 733 mmHg 49%
    17:00 +6°C° 0 mm 2 mps 733 mmHg 53%
    18:00 +4°C° 0 mm 2 mps 733 mmHg 57%
    19:00 +3°C° 0 mm 2 mps 733 mmHg 53%
    20:00 +3°C° 0 mm 2 mps 733 mmHg 50%
    21:00 +3°C° 0 mm 2 mps 733 mmHg 46%
    22:00 +2°C° 0 mm 2 mps 733 mmHg 44%
    23:00 +2°C° 0 mm 2 mps 733 mmHg 42%

    Day after tomorrow, 22 February, Wednesday

    Time Temperature Precipitation Wind Pressure Humidity
    00:00 +2°C° 0 mm 2 mps 733 mmHg 40%
    01:00 +2°C° 0 mm 2 mps 733 mmHg 42%
    02:00 +1°C° 0 mm 3 mps 733 mmHg 43%
    03:00 +1°C° 0 mm 3 mps 732 mmHg 44%
    04:00 +1°C° 0 mm 3 mps 733 mmHg 46%
    05:00 +1°C° 0 mm 3 mps 733 mmHg 48%
    06:00 0°C° 0 mm 4 mps 733 mmHg 50%
    07:00 +3°C° 0 mm 4 mps 733 mmHg 49%
    08:00 +4°C° 0 mm 4 mps 733 mmHg 48%
    09:00 +6°C° 0 mm 4 mps 733 mmHg 47%
    10:00 +7°C° 0 mm 4 mps 733 mmHg 45%
    11:00 +8°C° 0 mm 5 mps 733 mmHg 44%
    12:00 +9°C° 0 mm 5 mps 733 mmHg 43%
    13:00 +9°C° 0 mm 5 mps 733 mmHg 43%
    14:00 +9°C° 0 mm 5 mps 733 mmHg 44%
    15:00 +9°C° 0 mm 5 mps 732 mmHg 44%
    16:00 +7°C° 0 mm 4 mps 732 mmHg 47%
    17:00 +5°C° 0 mm 3 mps 733 mmHg 50%
    18:00 +3°C° 0 mm 3 mps 733 mmHg 52%
    19:00 +3°C° 0 mm 3 mps 733 mmHg 53%
    20:00 +3°C° 0 mm 3 mps 733 mmHg 54%
    21:00 +3°C° 0 mm 3 mps 733 mmHg 54%
    22:00 +3°C° 0 mm 3 mps 733 mmHg 55%
    23:00 +2°C° 0 mm 3 mps 733 mmHg 57%

    23 February, Thursday

    Time Temperature Precipitation Wind Pressure Humidity
    00:00 +2°C° 0 mm 3 mps 733 mmHg 58%
    01:00 +2°C° 0 mm 3 mps 733 mmHg 58%
    02:00 +2°C° 0 mm 3 mps 732 mmHg 58%
    03:00 +2°C° 0 mm 3 mps 732 mmHg 58%
    04:00 +2°C° 0 mm 3 mps 733 mmHg 58%
    05:00 +3°C° 0 mm 4 mps 733 mmHg 59%
    06:00 +3°C° 0 mm 4 mps 734 mmHg 60%
    07:00 +3°C° 0 mm 5 mps 734 mmHg 55%
    08:00 +5°C° 0 mm 5 mps 735 mmHg 51%
    09:00 +6°C° 0 mm 5 mps 736 mmHg 46%
    10:00 +7°C° 0 mm 5 mps 736 mmHg 47%
    11:00 +8°C° 0 mm 6 mps 736 mmHg 47%
    12:00 +9°C° 0 mm 6 mps 736 mmHg 47%
    13:00 +9°C° 0 mm 5 mps 736 mmHg 48%
    14:00 +10°C° 0 mm 5 mps 736 mmHg 48%
    15:00 +10°C° 0 mm 5 mps 736 mmHg 48%
    16:00 +8°C° 0 mm 4 mps 736 mmHg 53%
    17:00 +7°C° 0 mm 3 mps 736 mmHg 59%
    18:00 +5°C° 0 mm 2 mps 736 mmHg 64%
    19:00 +5°C° 0 mm 2 mps 737 mmHg 59%
    20:00 +5°C° 0 mm 2 mps 737 mmHg 54%
    21:00 +4°C° 0 mm 2 mps 738 mmHg 49%
    22:00 +3°C° 0 mm 3 mps 737 mmHg 50%
    23:00 +3°C° 0 mm 3 mps 737 mmHg 52%

    24 February, Friday

    Time Temperature Precipitation Wind Pressure Humidity
    00:00 +3°C° 0 mm 3 mps 737 mmHg 53%
    01:00 +3°C° 0 mm 3 mps 737 mmHg 55%
    02:00 +3°C° 0 mm 3 mps 737 mmHg 56%
    03:00 +3°C° 0 mm 3 mps 737 mmHg 57%
    04:00 +3°C° 0 mm 3 mps 737 mmHg 58%
    05:00 +2°C° 0 mm 3 mps 737 mmHg 58%
    06:00 +2°C° 0 mm 3 mps 738 mmHg 59%
    07:00 +4°C° 0 mm 3 mps 738 mmHg 55%
    08:00 +7°C° 0 mm 3 mps 738 mmHg 52%
    09:00 +9°C° 0 mm 2 mps 739 mmHg 48%
    10:00 +10°C° 0 mm 2 mps 738 mmHg 45%
    11:00 +13°C° 0 mm 2 mps 738 mmHg 42%
    12:00 +14°C° 0 mm 2 mps 738 mmHg 39%
    13:00 +14°C° 0 mm 2 mps 738 mmHg 39%
    14:00 +15°C° 0 mm 2 mps 738 mmHg 40%
    15:00 +15°C° 0 mm 2 mps 737 mmHg 40%
    16:00 +13°C° 0 mm 2 mps 738 mmHg 44%
    17:00 +9°C° 0 mm 2 mps 738 mmHg 48%
    18:00 +7°C° 0 mm 2 mps 738 mmHg 51%
    19:00 +7°C° 0 mm 2 mps 738 mmHg 51%
    20:00 +6°C° 0 mm 2 mps 738 mmHg 50%
    21:00 +6°C° 0 mm 2 mps 738 mmHg 49%
    22:00 +6°C° 0 mm 2 mps 738 mmHg 49%
    23:00 +6°C° 0 mm 2 mps 738 mmHg 49%

    25 February, Saturday

    Time Temperature Precipitation Wind Pressure Humidity
    00:00 +5°C° 0 mm 2 mps 737 mmHg 48%
    01:00 +5°C° 0 mm 2 mps 737 mmHg 48%
    02:00 +5°C° 0 mm 2 mps 737 mmHg 48%
    03:00 +5°C° 0 mm 2 mps 737 mmHg 48%
    04:00 +5°C° 0 mm 2 mps 737 mmHg 46%
    05:00 +5°C° 0 mm 2 mps 737 mmHg 45%
    06:00 +4°C° 0 mm 2 mps 736 mmHg 44%
    07:00 +6°C° 0 mm 2 mps 736 mmHg 43%
    08:00 +8°C° 0 mm 3 mps 736 mmHg 42%
    09:00 +10°C° 0 mm 3 mps 736 mmHg 40%
    10:00 +11°C° 0 mm 3 mps 735 mmHg 38%
    11:00 +13°C° 0 mm 3 mps 735 mmHg 37%
    12:00 +14°C° 0 mm 3 mps 734 mmHg 35%
    13:00 +14°C° 0 mm 3 mps 734 mmHg 35%
    14:00 +16°C° 0 mm 3 mps 733 mmHg 36%
    15:00 +16°C° 0 mm 3 mps 732 mmHg 36%
    16:00 +13°C° 0 mm 3 mps 732 mmHg 40%
    17:00 +11°C° 0 mm 3 mps 732 mmHg 43%
    18:00 +8°C° 0 mm 2 mps 732 mmHg 47%
    19:00 +8°C° 0 mm 2 mps 732 mmHg 46%
    20:00 +8°C° 0 mm 2 mps 731 mmHg 45%
    21:00 +7°C° 0 mm 2 mps 731 mmHg 44%
    22:00 +7°C° 0 mm 3 mps 731 mmHg 45%
    23:00 +7°C° 0 mm 3 mps 730 mmHg 46%
    Show more